CW9236 Weather Reports


time (UTC)temp
F
wind
direction
speed
knots
gust
knots
rain 1hr
in
rain 24hr
in
rain mn
in
humidity
%
barometer
mb
20260504221008 79 53 0.9 7.0 0.00 0.00 0.00 62 1011.5
20260504220505 79 62 2.6 7.0 0.00 0.00 0.00 61 1011.6
20260504220012 79 64 0.9 4.3 0.00 0.00 0.00 61 1011.5
20260504215507 79 85 1.7 4.3 0.00 0.00 0.00 60 1011.5
20260504215008 80 76 1.7 4.3 0.00 0.00 0.00 61 1011.8
20260504214514 80 61 1.7 4.3 0.00 0.00 0.00 59 1011.7
20260504214009 80 123 2.6 5.2 0.00 0.00 0.00 58 1011.8
20260504213508 81 70 1.7 5.2 0.00 0.00 0.00 58 1011.8
20260504213023 80 63 0.9 5.2 0.00 0.00 0.00 59 1011.9
20260504212512 80 74 1.7 5.2 0.00 0.00 0.00 58 1012.1
20260504212002 80 60 1.7 4.3 0.00 0.00 0.00 59 1011.9
20260504211506 80 91 1.7 4.3 0.00 0.00 0.00 58 1012.0
20260504211005 80 85 1.7 6.1 0.00 0.00 0.00 57 1012.1
20260504210504 81 65 0.9 6.1 0.00 0.00 0.00 56 1012.2
20260504210018 81 59 0.9 5.2 0.00 0.00 0.00 56 1012.1
20260504205505 81 78 1.7 5.2 0.00 0.00 0.00 57 1012.2
20260504205008 81 59 1.7 5.2 0.00 0.00 0.00 56 1012.3
20260504204516 81 50 1.7 5.2 0.00 0.00 0.00 56 1012.5
20260504204010 81 64 0.9 3.5 0.00 0.00 0.00 56 1012.6
20260504203514 81 342 0.0 3.5 0.00 0.00 0.00 58 1012.6
20260504203027 81 97 0.9 3.5 0.00 0.00 0.00 56 1012.6
20260504202513 81 94 1.7 5.2 0.00 0.00 0.00 59 1012.6
20260504202007 81 55 0.9 5.2 0.00 0.00 0.00 56 1012.9
20260504201507 81 74 0.9 4.3 0.00 0.00 0.00 55 1012.9
20260504201004 81 71 2.6 4.3 0.00 0.00 0.00 58 1013.1
20260504200505 81 59 1.7 4.3 0.00 0.00 0.00 54 1013.2
20260504200013 82 77 0.9 4.3 0.00 0.00 0.00 57 1013.3
20260504195507 81 37 0.9 6.1 0.00 0.00 0.00 57 1013.4
20260504195008 80 74 2.6 6.1 0.00 0.00 0.00 58 1013.4
20260504194522 80 88 1.7 5.2 0.00 0.00 0.00 59 1013.5
20260504194011 80 86 1.7 5.2 0.00 0.00 0.00 57 1013.5
20260504193508 80 78 2.6 4.3 0.00 0.00 0.00 56 1013.6
20260504193025 81 74 0.0 3.5 0.00 0.00 0.00 54 1013.7
20260504192508 81 36 0.9 3.5 0.00 0.00 0.00 57 1013.7
20260504192012 82 279 0.9 3.5 0.00 0.00 0.00 55 1013.8
20260504191527 83 277 0.9 6.1 0.00 0.00 0.00 54 1013.8
20260504191011 82 277 0.9 6.1 0.00 0.00 0.00 53 1014.0
20260504190511 81 352 0.9 7.0 0.00 0.00 0.00 57 1014.1
20260504190020 80 74 1.7 7.0 0.00 0.00 0.00 58 1014.1
20260504185006 81 79 1.7 4.3 0.00 0.00 0.00 55 1014.4
20260504182508 81 32 0.9 7.0 0.00 0.00 0.00 60 1014.5
20260504182014 79 84 0.9 7.0 0.00 0.00 0.00 59 1014.4
20260504181532 80 82 0.9 5.2 0.00 0.00 0.00 58 1014.4
20260504181010 80 70 0.9 5.2 0.00 0.00 0.00 56 1014.5
20260504180021 80 105 1.7 6.1 0.00 0.00 0.00 59 1014.9
20260504175010 80 68 0.9 6.1 0.00 0.00 0.00 55 1014.9
20260504174525 80 64 0.9 6.1 0.00 0.00 0.00 60 1014.9
20260504173508 80 63 0.0 5.2 0.00 0.00 0.00 59 1015.1
20260504171526 78 67 1.7 6.1 0.00 0.00 0.00 57 1015.3
20260504171012 79 84 1.7 6.1 0.00 0.00 0.00 59 1015.5
20260504170508 79 271 1.7 4.3 0.00 0.00 0.00 57 1015.5
20260504151007 75 54 0.9 5.2 0.00 0.00 0.00 64 1016.2
20260504150511 75 72 0.9 6.1 0.00 0.00 0.00 63 1016.2
20260504141010 71 74 0.9 5.2 0.00 0.00 0.00 65 1016.2
20260504140511 71 89 1.7 5.2 0.00 0.00 0.00 65 1016.3
20260504130507 65 78 0.9 3.5 0.00 0.00 0.00 72 1016.1
20260504110508 60 58 0.0 0.9 0.00 0.00 0.00 81 1015.8
20260504100512 60 57 0.0 0.0 0.00 0.00 0.00 80 1016.1
20260504081528 62 48 0.0 0.0 0.00 0.00 0.00 75 1016.5
20260504081010 62 48 0.0 0.0 0.00 0.00 0.00 74 1016.6
20260504080508 62 53 0.0 0.0 0.00 0.00 0.00 75 1016.7
20260504050503 64 57 0.0 0.0 0.00 0.00 0.00 69 1018.6
20260504050012 64 57 0.0 0.0 0.00 0.00 0.00 67 1018.6
20260504045504 65 57 0.0 0.0 0.00 0.00 0.00 66 1018.6
20260504045003 65 57 0.0 0.0 0.00 0.00 0.00 66 1018.6
20260504044509 65 57 0.0 0.9 0.00 0.00 0.00 65 1018.6
20260504044003 66 55 0.0 0.9 0.00 0.00 0.00 64 1018.7
20260504043503 66 55 0.0 0.9 0.00 0.00 0.00 63 1018.8
20260504043008 66 57 0.0 1.7 0.00 0.00 0.00 62 1018.7
20260504042504 66 54 0.0 1.7 0.00 0.00 0.00 61 1018.7
20260504042004 67 74 0.0 2.6 0.00 0.00 0.00 62 1018.7
20260504041510 67 61 0.0 2.6 0.00 0.00 0.00 61 1018.7
20260504041007 67 71 0.9 1.7 0.00 0.00 0.00 61 1018.7
20260504040507 67 74 0.0 2.6 0.00 0.00 0.00 61 1018.7
20260504040008 67 76 0.0 2.6 0.00 0.00 0.00 61 1018.7
20260504035505 67 76 0.0 2.6 0.00 0.00 0.00 61 1018.6
20260504035004 67 63 0.0 2.6 0.00 0.00 0.00 60 1018.6
20260504034510 67 67 0.9 2.6 0.00 0.00 0.00 60 1018.6
20260504034007 68 49 0.9 3.5 0.00 0.00 0.00 59 1018.7
20260504033505 68 84 0.9 3.5 0.00 0.00 0.00 59 1018.8
20260504033011 68 81 0.0 3.5 0.00 0.00 0.00 59 1018.9
20260504032509 68 85 0.9 3.5 0.00 0.00 0.00 58 1018.9
20260504032008 68 73 0.9 2.6 0.00 0.00 0.00 58 1018.8
20260504031511 68 84 0.0 2.6 0.00 0.00 0.00 58 1018.8
20260504031004 68 64 0.0 1.7 0.00 0.00 0.00 59 1018.7
20260504030504 68 69 0.0 2.6 0.00 0.00 0.00 57 1018.7
20260504030009 69 71 0.0 2.6 0.00 0.00 0.00 56 1018.7
20260504025503 69 70 0.0 1.7 0.00 0.00 0.00 56 1018.6
20260504025007 69 66 0.0 1.7 0.00 0.00 0.00 56 1018.6
20260504024511 69 62 0.0 2.6 0.00 0.00 0.00 55 1018.5
20260504024007 69 80 0.0 3.5 0.00 0.00 0.00 55 1018.4
20260504023506 70 81 0.0 3.5 0.00 0.00 0.00 56 1018.4
20260504023013 70 76 0.9 2.6 0.00 0.00 0.00 55 1018.3
20260504022509 70 78 0.9 3.5 0.00 0.00 0.00 53 1018.3
20260504022007 70 69 1.7 3.5 0.00 0.00 0.00 53 1018.4
20260504021516 71 91 1.7 4.3 0.00 0.00 0.00 53 1018.5
20260504021006 71 65 1.7 4.3 0.00 0.00 0.00 51 1018.4
20260504020508 71 72 1.7 4.3 0.00 0.00 0.00 52 1018.4
20260504020010 71 69 0.9 4.3 0.00 0.00 0.00 51 1018.3
20260504015506 71 73 0.9 2.6 0.00 0.00 0.00 52 1018.2
20260504015007 71 73 0.9 2.6 0.00 0.00 0.00 51 1018.2
20260504014514 71 91 0.0 3.5 0.00 0.00 0.00 52 1018.2
20260504014007 72 83 0.9 3.5 0.00 0.00 0.00 50 1018.1
20260504013506 72 68 0.9 3.5 0.00 0.00 0.00 51 1018.1
20260504013017 72 74 1.7 3.5 0.00 0.00 0.00 49 1018.0
20260504012504 72 69 1.7 3.5 0.00 0.00 0.00 49 1018.0
20260504012004 73 69 0.9 3.5 0.00 0.00 0.00 49 1018.0
20260504011504 73 42 1.7 5.2 0.00 0.00 0.00 48 1017.9
20260504011004 73 67 2.6 5.2 0.00 0.00 0.00 48 1017.7
20260504010503 73 74 1.7 5.2 0.00 0.00 0.00 48 1017.9
20260504010012 74 99 0.9 5.2 0.00 0.00 0.00 48 1017.9
20260504005504 74 76 1.7 4.3 0.00 0.00 0.00 47 1017.8
20260504005008 74 277 0.9 2.6 0.00 0.00 0.00 47 1017.8
20260504004515 74 277 0.9 2.6 0.00 0.00 0.00 46 1017.8
20260504004003 75 69 0.0 1.7 0.00 0.00 0.00 45 1017.8
20260504003506 75 71 0.0 2.6 0.00 0.00 0.00 44 1017.9
20260504003013 75 69 0.9 2.6 0.00 0.00 0.00 43 1017.9
20260504002503 75 72 0.9 2.6 0.00 0.00 0.00 43 1017.9
20260504002004 75 76 0.9 4.3 0.00 0.00 0.00 43 1017.9
20260504001508 75 61 0.9 4.3 0.00 0.00 0.00 42 1017.8
20260504001004 76 85 1.7 3.5 0.00 0.00 0.00 43 1018.0
20260504000503 76 15 1.7 3.5 0.00 0.00 0.00 41 1017.9
20260504000042 76 83 1.7 3.5 0.00 0.00 0.00 38 1017.9
20260503235509 77 74 0.9 2.6 0.00 0.00 0.00 37 1018.0
20260503235004 77 82 0.0 3.5 0.00 0.00 0.00 37 1018.0
20260503234516 77 94 0.9 3.5 0.00 0.00 0.00 36 1018.1
20260503234007 77 77 0.9 3.5 0.00 0.00 0.00 36 1018.0
20260503233510 78 78 0.9 3.5 0.00 0.00 0.00 35 1017.9
20260503233016 78 71 0.0 4.3 0.00 0.00 0.00 34 1018.1
20260503232504 77 82 0.9 4.3 0.00 0.00 0.00 36 1018.1
20260503232004 78 66 0.9 3.5 0.00 0.00 0.00 35 1018.1
20260503231509 78 86 0.9 2.6 0.00 0.00 0.00 38 1018.2
20260503231007 79 51 0.0 3.5 0.00 0.00 0.00 35 1018.2
20260503230507 78 81 0.9 5.2 0.00 0.00 0.00 36 1018.2
20260503230018 79 78 1.7 5.2 0.00 0.00 0.00 38 1018.1
20260503225508 79 70 1.7 5.2 0.00 0.00 0.00 34 1018.1
20260503225009 79 82 0.0 5.2 0.00 0.00 0.00 38 1018.2
20260503224519 79 90 0.0 5.2 0.00 0.00 0.00 36 1018.3
20260503224009 79 74 0.9 4.3 0.00 0.00 0.00 38 1018.4
20260503223507 79 55 0.9 3.5 0.00 0.00 0.00 39 1018.4
20260503223008 78 63 1.7 3.5 0.00 0.00 0.00 37 1018.4
20260503222503 78 71 0.9 2.6 0.00 0.00 0.00 37 1018.5
20260503222006 79 283 0.9 2.6 0.00 0.00 0.00 36 1018.5
20260503221512 79 282 0.0 2.6 0.00 0.00 0.00 40 1018.6